Location: Berlise
(49.6641°N, 4.1077°E)
Time: 23:17:07
(UTC+00:00)

Cosmos 2263 - Pass Details

Date: 27 January 2021
Orbit: 832 x 865 km, 70.9° (Epoch: 01 March)

Event Time Altitude Azimuth Distance (km) Brightness Sun altitude
Exits shadow 06:30:22 - 328° (NNW) 3,135 6.7 -8.6°
Reaches altitude 10° 06:32:08 10° 325° (NW) 2,470 6.2 -8.3°
Maximum altitude 06:37:41 59° 247° (WSW) 975 4.3 -7.5°
Drops below altitude 10° 06:43:16 10° 170° (S) 2,476 7.1 -6.6°
Sets 06:45:44 0° 166° (SSE) 3,413 7.9 -6.3°
